Wind_Speed
41 39 38 36 35 33 32 31 30 28 28 27 26 25 24 24 23 23 23 23 23 23 24 24 25 25 26 27 28 29 30 30 31 32 32 33 33 34 34 34 34 33 32
44 42 40 38 37 35 34 33 31 30 30 29 28 27 27 26 26 25 25 25 25 26 26 27 27 28 29 29 30 31 31 32 33 33 34 34 34 35 35 35 34 34 33
46 44 42 40 39 38 36 35 33 32 31 31 30 29 28 28 28 28 27 27 27 28 28 29 29 30 30 31 32 32 33 34 35 34 35 35 35 36 36 35 35 34 34
47 46 44 42 41 39 38 37 35 34 33 32 32 31 30 30 30 30 29 29 29 29 30 31 31 32 32 33 33 34 35 35 36 35 36 36 37 37 37 36 36 36 35
49 48 46 44 42 41 40 39 37 36 35 34 33 32 32 31 31 31 31 31 31 31 32 32 33 33 34 34 34 35 35 36 36 36 37 37 38 38 38 38 38 37 37
50 49 48 46 44 43 42 41 39 38 36 35 34 34 33 33 33 33 33 33 33 33 33 33 34 34 34 35 35 36 36 36 36 37 38 39 40 40 40 40 40 39 39
51 51 50 49 47 45 43 41 40 38 36 35 35 35 35 34 34 34 34 35 35 35 34 34 34 35 35 35 36 36 36 37 38 39 40 41 41 42 42 42 42 41 41
50 50 50 49 48 46 44 42 41 39 37 37 36 36 35 34 34 34 35 36 36 35 35 35 35 36 36 36 37 37 37 38 39 40 42 43 44 44 45 44 44 43 42
52 51 50 50 49 48 46 44 43 42 40 39 38 36 35 36 35 35 35 36 36 36 36 36 36 36 36 36 37 37 38 39 41 42 44 45 46 46 46 46 45 44 43
52 50 49 48 47 47 46 46 44 42 40 39 38 37 37 36 37 36 35 35 35 36 36 37 36 36 36 36 36 38 40 42 43 44 46 47 47 47 47 47 46 44 44
48 48 48 45 45 45 44 44 42 40 39 39 38 38 38 38 38 37 37 37 37 37 37 37 37 36 36 37 38 40 42 43 44 45 46 47 47 47 48 47 46 44 43
45 45 46 45 44 43 42 40 40 39 40 40 39 38 38 39 40 40 39 38 38 38 37 37 37 37 38 39 40 41 43 44 45 46 47 47 47 47 47 47 45 44 42
43 43 44 44 43 42 41 40 40 42 43 43 43 42 41 41 41 40 40 39 39 38 37 37 37 38 38 39 40 42 44 45 46 47 47 48 48 48 47 46 45 43 42
42 43 44 45 45 45 45 45 44 44 45 45 45 45 45 43 42 41 41 40 38 37 37 37 37 37 38 40 41 43 44 45 46 47 48 48 48 47 46 46 44 43 41
39 41 44 46 46 46 47 47 48 48 48 47 46 46 46 44 42 40 39 38 37 36 35 37 37 38 40 41 43 44 45 46 47 48 48 48 48 47 46 45 43 41 39
40 39 41 44 46 47 48 48 49 49 48 47 46 46 44 42 40 38 37 37 37 37 37 38 38 40 41 42 44 45 46 46 47 48 48 48 47 47 46 44 41 40 38
39 40 40 41 43 44 44 45 47 46 45 45 45 43 41 39 39 39 38 38 38 38 38 39 40 41 42 43 45 45 46 46 47 47 47 46 46 45 44 42 40 38 36
36 37 38 40 40 41 41 42 43 43 43 42 42 41 41 41 41 40 39 39 40 40 40 40 41 42 43 44 44 44 45 45 46 46 45 45 44 43 42 40 38 37 35
37 38 38 40 41 41 41 41 42 43 43 43 42 42 41 41 40 40 40 40 41 41 41 41 41 42 43 44 44 44 45 45 45 44 44 43 42 42 40 38 36 34 32
40 40 40 40 42 41 40 41 42 42 42 42 42 41 41 41 41 41 41 42 42 41 42 42 42 43 43 43 43 43 43 43 43 43 42 42 41 39 37 35 33 31 30
42 43 43 42 42 42 43 43 43 43 43 43 43 43 43 43 43 43 43 43 43 43 43 43 43 43 43 43 43 42 42 42 42 42 41 39 37 36 34 32 31 29 28
44 45 45 44 44 44 45 45 46 46 46 45 46 45 45 45 45 44 44 44 44 44 44 44 44 43 43 42 41 41 41 41 41 40 38 36 35 33 32 30 29 28 27
47 47 46 47 47 47 47 47 47 48 47 47 48 47 47 46 46 46 46 46 46 46 45 45 44 43 42 41 40 40 40 40 39 38 35 34 32 31 29 28 28 27 26
50 50 50 50 50 50 50 50 50 49 49 49 48 48 48 48 47 47 47 47 47 47 45 44 44 42 41 40 40 39 39 38 37 35 33 32 30 29 28 27 26 25 25
54 54 53 53 53 52 52 52 52 52 51 51 50 50 50 49 48 48 47 47 47 46 45 44 42 41 40 39 39 39 38 36 35 34 32 31 29 28 27 26 25 24 23
56 56 55 55 55 54 54 53 52 52 51 51 51 50 50 49 48 47 47 46 45 44 43 42 41 40 39 39 38 38 37 35 34 33 31 30 29 27 26 25 24 23 23
Wind_Direction
236 238 240 242 243 245 246 247 248 249 251 253 255 256 258 260 261 263 266 268 271 274 278 281 285 288 291 294 296 298 300 302 305 307 308 310 312 313 314 314 313 312 311
235 238 239 241 243 245 245 247 248 249 251 253 255 257 258 260 262 264 266 268 271 274 277 280 284 287 290 292 295 297 299 301 304 306 307 308 310 311 312 312 311 310 310
235 237 239 241 243 245 246 247 249 250 251 254 255 257 259 261 263 265 266 269 272 274 277 281 284 286 289 291 294 296 298 300 303 304 305 307 309 311 311 310 309 309 308
234 236 238 240 242 243 245 247 248 249 252 254 256 258 260 263 264 266 267 270 272 275 277 280 283 285 288 290 293 295 298 300 301 303 304 306 308 309 309 308 308 307 305
234 236 237 239 242 243 245 247 248 249 251 254 256 259 262 264 266 268 269 271 273 275 277 280 282 285 287 290 292 295 298 299 301 303 304 306 307 308 307 306 305 304 303
234 236 237 239 241 242 244 245 247 249 251 253 256 259 262 264 267 269 271 273 275 277 278 280 282 285 288 290 293 295 297 299 301 302 304 305 306 306 305 304 303 302 301
234 236 236 238 240 242 244 245 246 248 250 253 256 258 261 264 267 270 273 275 276 278 279 281 283 286 288 291 294 296 297 299 300 302 303 304 305 305 304 303 301 301 299
234 235 237 238 240 242 244 246 248 249 250 253 256 259 262 265 268 271 273 274 276 277 279 281 283 286 289 292 294 295 297 299 300 302 303 303 303 303 302 300 300 299 298
234 237 238 240 241 244 245 247 250 251 252 254 256 259 262 265 267 270 273 274 276 277 279 282 285 287 290 292 294 296 298 299 300 301 302 303 303 302 301 300 299 298 297
236 238 240 241 243 246 247 248 250 251 254 254 256 259 263 266 268 270 272 275 277 278 280 283 285 288 290 293 295 297 298 300 301 302 302 302 302 301 300 299 298 297 296
234 236 239 241 242 245 248 250 251 252 255 256 258 260 263 266 268 270 271 273 275 277 280 283 285 288 290 293 295 297 299 300 301 302 302 302 301 301 301 299 298 296 295
235 237 238 240 242 245 249 251 251 252 255 258 260 262 264 267 269 270 271 272 274 276 279 281 285 289 291 293 295 297 299 300 301 301 301 301 301 301 300 299 298 296 295
240 241 242 244 244 247 249 251 252 254 257 259 261 261 263 266 267 269 270 272 273 274 277 281 286 289 292 293 295 297 299 299 300 300 300 300 300 300 300 298 297 296 294
240 241 243 244 246 248 250 251 253 256 257 260 262 263 263 265 267 268 269 271 273 276 279 282 286 288 290 293 295 297 298 298 298 298 299 299 299 299 299 298 297 296 293
243 244 245 247 247 250 251 253 254 256 257 259 261 262 262 263 266 267 268 271 273 276 278 282 284 288 290 293 294 295 296 297 297 297 297 298 298 298 298 297 296 295 292
246 248 247 249 251 251 252 253 254 255 257 258 260 262 262 263 264 266 268 271 274 276 278 281 283 286 289 291 293 293 294 295 295 296 296 296 297 297 297 295 294 293 291
250 249 248 250 252 253 254 254 253 256 258 259 260 260 260 262 264 267 271 272 274 276 278 280 283 286 288 290 291 292 293 294 294 295 295 296 297 297 295 294 292 292 290
254 254 253 253 254 254 253 255 255 257 258 259 259 260 262 264 266 268 269 270 273 275 277 281 283 285 287 289 290 291 292 293 294 294 295 295 295 295 294 293 292 290 289
259 259 258 257 256 256 256 256 256 257 257 259 260 262 263 264 265 266 268 270 274 276 278 281 282 284 286 287 289 290 291 292 293 294 294 294 294 294 293 292 290 289 287
260 259 258 258 258 258 259 259 258 258 258 259 261 262 263 263 264 266 269 272 274 276 278 279 281 283 285 286 288 289 290 292 293 293 294 294 294 293 292 290 288 287 286
260 259 259 259 259 259 258 258 258 258 259 259 259 261 262 264 266 269 270 271 273 275 277 278 280 282 283 285 286 288 289 291 292 293 294 293 292 291 291 289 287 285 284
262 261 261 261 261 259 258 258 258 258 258 260 261 262 263 264 266 267 269 271 273 274 275 277 279 281 282 284 285 286 288 290 291 292 292 291 290 289 289 287 285 282 281
263 263 262 261 260 260 259 258 258 259 260 260 261 262 262 263 264 266 268 270 272 274 274 276 277 279 281 282 284 285 287 289 290 290 289 288 288 287 286 286 284 282 280
264 263 262 261 261 260 259 258 258 258 259 259 260 261 262 263 264 266 268 269 271 272 273 274 275 277 278 280 282 284 286 287 287 287 286 286 285 284 284 283 282 280 278
265 264 262 261 261 260 259 258 258 258 258 258 259 260 261 261 263 264 266 268 269 270 271 272 273 275 277 279 280 282 284 284 284 284 284 283 282 282 282 280 279 278 276
266 265 263 262 261 259 258 258 258 257 257 257 258 258 259 259 261 263 264 265 266 267 269 270 272 274 275 277 278 280 281 281 281 281 281 280 280 279 278 277 276 275 274
Height
5818 5822 5825 5828 5830 5833 5835 5837 5839 5841 5842 5844 5845 5846 5847 5847 5848 5849 5849 5849 5849 5849 5848 5848 5847 5846 5845 5844 5843 5841 5839 5837 5835 5832 5830 5828 5825 5822 5819 5815 5812 5809 5806
5811 5815 5818 5821 5824 5827 5829 5831 5833 5835 5837 5838 5839 5840 5841 5842 5843 5844 5844 5844 5844 5844 5843 5843 5842 5841 5840 5839 5837 5835 5834 5832 5829 5827 5824 5822 5819 5816 5813 5810 5807 5804 5801
5804 5808 5811 5815 5818 5820 5823 5825 5827 5829 5831 5832 5834 5835 5836 5836 5837 5838 5838 5838 5838 5838 5838 5837 5836 5835 5834 5833 5831 5829 5827 5825 5823 5821 5818 5815 5813 5810 5807 5804 5801 5798 5795
5796 5800 5804 5807 5810 5813 5816 5818 5821 5823 5824 5826 5827 5829 5830 5830 5831 5832 5832 5832 5833 5832 5832 5831 5830 5829 5828 5826 5825 5823 5821 5819 5816 5814 5811 5809 5806 5803 5800 5797 5794 5791 5788
5788 5792 5796 5800 5803 5806 5809 5811 5813 5816 5818 5819 5821 5822 5823 5824 5825 5825 5826 5826 5826 5826 5825 5825 5824 5823 5821 5820 5818 5816 5814 5812 5810 5807 5805 5802 5799 5796 5793 5790 5787 5783 5781
5779 5783 5788 5792 5795 5798 5801 5803 5806 5808 5810 5812 5814 5815 5816 5817 5818 5819 5819 5819 5819 5819 5818 5818 5817 5816 5814 5813 5811 5809 5807 5805 5803 5800 5798 5795 5792 5789 5786 5782 5779 5776 5773
5771 5775 5779 5783 5787 5790 5793 5795 5798 5801 5803 5805 5807 5808 5809 5810 5811 5812 5812 5812 5812 5811 5811 5810 5809 5808 5807 5806 5804 5802 5800 5798 5795 5793 5790 5787 5784 5781 5777 5774 5771 5767 5764
5763 5767 5771 5775 5779 5782 5785 5788 5791 5793 5795 5797 5799 5800 5802 5803 5804 5804 5804 5804 5804 5804 5803 5802 5802 5801 5800 5798 5796 5794 5792 5790 5788 5785 5782 5779 5776 5772 5768 5765 5762 5758 5755
5755 5759 5763 5767 5770 5774 5777 5780 5782 5785 5787 5789 5791 5793 5794 5795 5796 5797 5796 5796 5796 5796 5796 5795 5794 5793 5792 5790 5789 5786 5784 5782 5779 5777 5773 5770 5766 5763 5759 5755 5752 5749 5746
5748 5752 5755 5759 5762 5766 5769 5771 5774 5777 5779 5780 5782 5784 5785 5786 5788 5789 5789 5788 5788 5788 5787 5787 5786 5785 5783 5782 5780 5778 5776 5773 5770 5767 5764 5760 5757 5753 5749 5746 5742 5739 5736
5740 5744 5748 5751 5754 5757 5760 5763 5766 5768 5770 5772 5774 5775 5776 5777 5778 5780 5780 5781 5780 5780 5779 5778 5778 5776 5775 5774 5772 5770 5767 5764 5761 5757 5754 5751 5747 5743 5739 5735 5732 5729 5726
5732 5736 5740 5743 5746 5749 5752 5755 5757 5760 5761 5763 5765 5766 5768 5769 5769 5770 5771 5771 5772 5772 5771 5770 5769 5768 5767 5765 5763 5760 5758 5755 5751 5748 5744 5741 5737 5733 5729 5725 5722 5719 5716
5725 5728 5732 5735 5738 5741 5744 5746 5749 5751 5753 5754 5756 5757 5759 5759 5760 5761 5761 5761 5762 5762 5762 5761 5760 5758 5757 5755 5753 5751 5748 5745 5742 5738 5734 5730 5726 5722 5719 5715 5712 5709 5706
5717 5720 5723 5726 5729 5732 5734 5737 5739 5741 5743 5744 5746 5747 5748 5749 5750 5751 5751 5752 5752 5753 5753 5752 5750 5749 5747 5746 5743 5741 5738 5735 5732 5728 5724 5720 5716 5712 5708 5705 5702 5699 5696
5709 5712 5714 5717 5720 5722 5724 5727 5729 5731 5733 5734 5735 5737 5738 5739 5740 5740 5741 5742 5743 5743 5743 5742 5741 5739 5737 5735 5733 5731 5728 5724 5721 5717 5713 5709 5706 5702 5698 5695 5692 5689 5686
5700 5702 5705 5707 5710 5712 5714 5716 5718 5720 5722 5723 5724 5726 5727 5728 5729 5730 5731 5731 5731 5732 5732 5732 5730 5729 5727 5725 5722 5720 5717 5714 5710 5706 5703 5699 5695 5691 5688 5685 5682 5679 5677
5691 5693 5695 5697 5699 5701 5703 5705 5707 5708 5710 5712 5713 5715 5716 5717 5719 5719 5720 5720 5721 5721 5721 5721 5719 5718 5716 5714 5711 5709 5706 5703 5699 5695 5692 5688 5685 5681 5678 5675 5672 5669 5667
5681 5682 5684 5686 5688 5690 5691 5693 5695 5697 5699 5701 5702 5703 5705 5706 5707 5708 5709 5709 5710 5709 5710 5709 5708 5707 5705 5703 5700 5698 5695 5691 5688 5685 5681 5677 5674 5671 5668 5665 5662 5660 5658
5670 5672 5673 5675 5677 5679 5680 5682 5684 5686 5688 5689 5691 5692 5693 5695 5696 5697 5697 5698 5698 5698 5698 5698 5697 5695 5694 5692 5689 5686 5684 5681 5677 5674 5670 5667 5664 5661 5658 5655 5653 5651 5650
5659 5660 5662 5664 5665 5667 5669 5670 5672 5674 5676 5677 5679 5680 5681 5683 5684 5685 5686 5686 5686 5686 5686 5686 5685 5684 5682 5680 5678 5676 5673 5670 5667 5664 5660 5657 5654 5651 5649 5646 5644 5643 5642
5646 5648 5649 5651 5653 5654 5656 5658 5660 5661 5663 5664 5666 5668 5669 5670 5672 5673 5673 5674 5674 5674 5674 5674 5673 5672 5671 5669 5667 5665 5662 5659 5656 5653 5650 5647 5645 5642 5640 5638 5636 5635 5634
5633 5634 5636 5638 5639 5641 5642 5644 5646 5648 5649 5651 5653 5655 5656 5657 5659 5660 5661 5661 5662 5662 5662 5662 5661 5660 5659 5658 5656 5654 5651 5649 5646 5644 5641 5638 5636 5634 5632 5631 5629 5628 5627
5618 5620 5621 5623 5625 5626 5628 5629 5631 5633 5635 5637 5639 5641 5642 5644 5645 5647 5647 5648 5649 5649 5649 5650 5649 5648 5648 5646 5645 5643 5641 5639 5636 5634 5632 5629 5628 5626 5624 5623 5622 5621 5620
5603 5604 5605 5607 5609 5611 5612 5614 5616 5618 5621 5623 5625 5627 5628 5630 5632 5633 5634 5635 5636 5637 5637 5637 5637 5637 5636 5635 5634 5632 5630 5628 5626 5624 5622 5621 5619 5618 5617 5616 5615 5614 5614
5585 5587 5588 5590 5592 5594 5596 5598 5600 5602 5605 5607 5610 5612 5614 5616 5617 5619 5621 5622 5623 5624 5624 5625 5625 5625 5624 5623 5622 5621 5620 5618 5617 5615 5614 5613 5611 5610 5609 5608 5608 5607 5607
5567 5568 5570 5572 5575 5577 5579 5581 5583 5586 5589 5592 5594 5596 5598 5601 5603 5605 5607 5609 5610 5611 5612 5613 5613 5613 5613 5612 5611 5611 5610 5609 5607 5607 5605 5604 5603 5602 5602 5601 5601 5601 5600